owner,sensor,date,latitude,longitude,vertical_datum,wind_speed,wind_to_direction,wind_speed_of_gust,qcFlag 
TABS,ioos:station:wmo:42044:1,2013-01-01T00:00:00Z,26.1914,-97.0507,0.0,4.816243349,159.4581369,6.46,'11111222,11111222,11111222' 
TABS,ioos:station:wmo:42044:1,2013-01-01T00:30:00Z,26.1914,-97.0507,0.0,3.486488204,163.3324864,4.39,'11111222,11111222,11111222' 
TABS,ioos:station:wmo:42044:1,2013-01-01T01:00:00Z,26.1914,-97.0507,0.0,3.341676226,173.4706897,4.24,'11111222,11111222,11111222' 
TABS,ioos:station:wmo:42044:1,2013-01-01T01:30:00Z,26.1914,-97.0507,0.0,2.051560382,182.2350041,2.8,'11111222,11111222,11111222' 
TABS,ioos:station:wmo:42044:1,2013-01-01T02:00:00Z,26.1914,-97.0507,0.0,1.595117551,149.8989763,2.16,'11111222,11111222,11111222' 
TABS,ioos:station:wmo:42044:1,2013-01-01T02:30:00Z,26.1914,-97.0507,0.0,1.534438008,163.3367703,2.74,'11111222,11111222,11111222' 
TABS,ioos:station:wmo:42044:1,2013-01-01T03:00:00Z,26.1914,-97.0507,0.0,1.96977156,167.092832,2.79,'11111222,11111222,11111222' 
TABS,ioos:station:wmo:42044:1,2013-01-01T03:30:00Z,26.1914,-97.0507,0.0,1.202081528,160.0578725,1.77,'11111222,11111222,11111222' 
TABS,ioos:station:wmo:42044:1,2013-01-01T04:00:00Z,26.1914,-97.0507,0.0,0.440113622,178.6982608,0.99,'11111222,11111222,11111222' 
TABS,ioos:station:wmo:42044:1,2013-01-01T04:30:00Z,26.1914,-97.0507,0.0,0.856154192,112.6717115,1.48,'11111222,11111222,11111222' 
TABS,ioos:station:wmo:42044:1,2013-01-01T05:00:00Z,26.1914,-97.0507,0.0,0.521727898,347.8283598,1.18,'11111222,11111222,11111222' 
TABS,ioos:station:wmo:42044:1,2013-01-01T05:30:00Z,26.1914,-97.0507,0.0,1.110180166,324.1622204,2.06,'11111222,11111222,11111222' 
TABS,ioos:station:wmo:42044:1,2013-01-01T06:00:00Z,26.1914,-97.0507,0.0,0.941912947,183.6524247,1.68,'11111222,11111222,11111222' 
TABS,ioos:station:wmo:42044:1,2013-01-01T06:30:00Z,26.1914,-97.0507,0.0,1.861316738,192.0949393,2.45,'11111222,11111222,11111222' 
TABS,ioos:station:wmo:42044:1,2013-01-01T07:00:00Z,26.1914,-97.0507,0.0,1.404279175,197.4028739,2.03,'11111222,11111222,11111222' 
TABS,ioos:station:wmo:42044:1,2013-01-01T07:30:00Z,26.1914,-97.0507,0.0,1.522005256,155.9613324,2.28,'11111222,11111222,11111222' 
TABS,ioos:station:wmo:42044:1,2013-01-01T08:00:00Z,26.1914,-97.0507,0.0,1.63027605,131.0209425,2.29,'11111222,11111222,11111222' 
TABS,ioos:station:wmo:42044:1,2013-01-01T08:30:00Z,26.1914,-97.0507,0.0,1.533753566,167.9576635,2.26,'11111222,11111222,11111222' 
TABS,ioos:station:wmo:42044:1,2013-01-01T09:00:00Z,26.1914,-97.0507,0.0,2.022003956,145.6814882,2.68,'11111222,11111222,11111222' 
TABS,ioos:station:wmo:42044:1,2013-01-01T09:30:00Z,26.1914,-97.0507,0.0,1.942009269,142.9533791,2.9,'11111222,11111222,11111222' 
TABS,ioos:station:wmo:42044:1,2013-01-01T10:00:00Z,26.1914,-97.0507,0.0,1.737613306,163.9642659,2.52,'11111222,11111222,11111222' 
TABS,ioos:station:wmo:42044:1,2013-01-01T10:30:00Z,26.1914,-97.0507,0.0,2.838097955,186.4741513,3.7,'11111222,11111222,11111222' 
TABS,ioos:station:wmo:42044:1,2013-01-01T11:00:00Z,26.1914,-97.0507,0.0,2.175247112,190.3285919,2.89,'11111222,11111222,11111222' 
TABS,ioos:station:wmo:42044:1,2013-01-01T11:30:00Z,26.1914,-97.0507,0.0,2.60754674,194.8891305,3.41,'11111222,11111222,11111222' 
TABS,ioos:station:wmo:42044:1,2013-01-01T12:00:00Z,26.1914,-97.0507,0.0,3.11173585,175.0225059,3.98,'11111222,11111222,11111222' 
TABS,ioos:station:wmo:42044:1,2013-01-01T12:30:00Z,26.1914,-97.0507,0.0,2.716707566,171.9596049,3.53,'11111222,11111222,11111222' 
TABS,ioos:station:wmo:42044:1,2013-01-01T13:00:00Z,26.1914,-97.0507,0.0,2.42860042,195.5242852,3.32,'11111222,11111222,11111222' 
TABS,ioos:station:wmo:42044:1,2013-01-01T13:30:00Z,26.1914,-97.0507,0.0,3.181351914,204.7124,3.86,'11111222,11111222,11111222' 
TABS,ioos:station:wmo:42044:1,2013-01-01T14:00:00Z,26.1914,-97.0507,0.0,2.577925523,211.8406058,3.42,'11111222,11111222,11111222' 
TABS,ioos:station:wmo:42044:1,2013-01-01T14:30:00Z,26.1914,-97.0507,0.0,2.574101785,214.5545076,3.35,'11111222,11111222,11111222' 
TABS,ioos:station:wmo:42044:1,2013-01-01T15:00:00Z,26.1914,-97.0507,0.0,2.626118809,227.623677,3.33,'11111222,11111222,11111222' 
TABS,ioos:station:wmo:42044:1,2013-01-01T15:30:00Z,26.1914,-97.0507,0.0,6.538776644,284.163723,9.45,'11111222,11111222,11111222' 
TABS,ioos:station:wmo:42044:1,2013-01-01T16:00:00Z,26.1914,-97.0507,0.0,7.725807401,294.1431519,9.66,'11111222,11111222,11111222' 
TABS,ioos:station:wmo:42044:1,2013-01-01T16:30:00Z,26.1914,-97.0507,0.0,6.873543482,304.5685456,9.21,'11111222,11111222,11111222' 
TABS,ioos:station:wmo:42044:1,2013-01-01T17:00:00Z,26.1914,-97.0507,0.0,7.717512553,301.2183298,10.17,'11111222,11111222,11111222' 
TABS,ioos:station:wmo:42044:1,2013-01-01T17:30:00Z,26.1914,-97.0507,0.0,8.386286425,314.9998948,10.35,'11111222,11111222,11111222' 
TABS,ioos:station:wmo:42044:1,2013-01-01T18:00:00Z,26.1914,-97.0507,0.0,8.327070313,327.2067613,11.41,'11111222,11111222,11111222' 
TABS,ioos:station:wmo:42044:1,2013-01-01T18:30:00Z,26.1914,-97.0507,0.0,9.816644029,327.9449871,13.21,'11111222,11111222,11111222' 
TABS,ioos:station:wmo:42044:1,2013-01-01T19:00:00Z,26.1914,-97.0507,0.0,11.52744985,344.3480071,14.02,'11111222,11111222,11111222' 
TABS,ioos:station:wmo:42044:1,2013-01-01T19:30:00Z,26.1914,-97.0507,0.0,11.8378123,357.9181086,14.69,'11111222,11111222,11111222' 
TABS,ioos:station:wmo:42044:1,2013-01-01T20:00:00Z,26.1914,-97.0507,0.0,11.62034853,0.443550728,14.63,'11111222,11111222,11111222' 
TABS,ioos:station:wmo:42044:1,2013-01-01T20:30:00Z,26.1914,-97.0507,0.0,11.82264353,1.21144572,14.68,'11111222,11111222,11111222' 
TABS,ioos:station:wmo:42044:1,2013-01-01T21:00:00Z,26.1914,-97.0507,0.0,12.37133784,4.078797407,15.14,'11111222,11111222,11111222' 
TABS,ioos:station:wmo:42044:1,2013-01-01T21:30:00Z,26.1914,-97.0507,0.0,11.8163023,6.072231749,14.79,'11111222,11111222,11111222' 
TABS,ioos:station:wmo:42044:1,2013-01-01T22:00:00Z,26.1914,-97.0507,0.0,12.34,9.797951537,15.15,'11111222,11111222,11111222' 
TABS,ioos:station:wmo:42044:1,2013-01-01T22:30:00Z,26.1914,-97.0507,0.0,11.9631643,8.556585135,16.07,'11111222,11111222,11111222' 
TABS,ioos:station:wmo:42044:1,2013-01-01T23:00:00Z,26.1914,-97.0507,0.0,12.50969624,17.20349924,16.28,'11111222,11111222,11111222' 
TABS,ioos:station:wmo:42044:1,2013-01-01T23:30:00Z,26.1914,-97.0507,0.0,12.06642035,17.3084515,15.06,'11111222,11111222,11111222' 
TABS,ioos:station:wmo:42044:1,2013-01-02T00:00:00Z,26.1914,-97.0507,0.0,11.72569827,13.11157475,15.18,'11111222,11111222,11111222' 
TABS,ioos:station:wmo:42044:1,2013-01-02T00:30:00Z,26.1914,-97.0507,0.0,10.85847595,14.34314388,14.22,'11111222,11111222,11111222' 
TABS,ioos:station:wmo:42044:1,2013-01-02T01:00:00Z,26.1914,-97.0507,0.0,11.02581063,13.74612148,14.79,'11111222,11111222,11111222' 
TABS,ioos:station:wmo:42044:1,2013-01-02T01:30:00Z,26.1914,-97.0507,0.0,10.9352732,18.16959295,14.05,'11111222,11111222,11111222' 
TABS,ioos:station:wmo:42044:1,2013-01-02T02:00:00Z,26.1914,-97.0507,0.0,10.15094577,15.95290129,12.43,'11111222,11111222,11111222' 
TABS,ioos:station:wmo:42044:1,2013-01-02T02:30:00Z,26.1914,-97.0507,0.0,9.255122906,24.37708222,11.4,'11111222,11111222,11111222' 
TABS,ioos:station:wmo:42044:1,2013-01-02T03:00:00Z,26.1914,-97.0507,0.0,9.391400322,20.4415383,12.5,'11111222,11111222,11111222' 
TABS,ioos:station:wmo:42044:1,2013-01-02T03:30:00Z,26.1914,-97.0507,0.0,8.935020985,24.81518021,12.24,'11111222,11111222,11111222' 
TABS,ioos:station:wmo:42044:1,2013-01-02T04:00:00Z,26.1914,-97.0507,0.0,9.038257575,26.33797861,11.62,'11111222,11111222,11111222' 
TABS,ioos:station:wmo:42044:1,2013-01-02T04:30:00Z,26.1914,-97.0507,0.0,8.241899053,28.39935392,10.77,'11111222,11111222,11111222' 
TABS,ioos:station:wmo:42044:1,2013-01-02T05:00:00Z,26.1914,-97.0507,0.0,8.056159134,22.55395207,10.66,'11111222,11111222,11111222' 
TABS,ioos:station:wmo:42044:1,2013-01-02T05:30:00Z,26.1914,-97.0507,0.0,8.676664106,30.31794815,11.39,'11111222,11111222,11111222' 
TABS,ioos:station:wmo:42044:1,2013-01-02T06:00:00Z,26.1914,-97.0507,0.0,8.226505941,27.90423695,10.89,'11111222,11111222,11111222' 
TABS,ioos:station:wmo:42044:1,2013-01-02T06:30:00Z,26.1914,-97.0507,0.0,8.502246762,15.06573971,10.51,'11111222,11111222,11111222' 
TABS,ioos:station:wmo:42044:1,2013-01-02T07:00:00Z,26.1914,-97.0507,0.0,8.826533861,19.11211131,11.38,'11111222,11111222,11111222' 
TABS,ioos:station:wmo:42044:1,2013-01-02T07:30:00Z,26.1914,-97.0507,0.0,8.280217388,13.83461035,10.29,'11111222,11111222,11111222' 
TABS,ioos:station:wmo:42044:1,2013-01-02T08:00:00Z,26.1914,-97.0507,0.0,9.207437211,2.302829797,11.94,'11111222,11111222,11111222' 
TABS,ioos:station:wmo:42044:1,2013-01-02T08:30:00Z,26.1914,-97.0507,0.0,9.660020704,0.118413897,11.96,'11111222,11111222,11111222' 
TABS,ioos:station:wmo:42044:1,2013-01-02T09:00:00Z,26.1914,-97.0507,0.0,10.21334911,354.7190307,12.86,'11111222,11111222,11111222' 
TABS,ioos:station:wmo:42044:1,2013-01-02T09:30:00Z,26.1914,-97.0507,0.0,10.59090176,350.9821844,13.43,'11111222,11111222,11111222' 
TABS,ioos:station:wmo:42044:1,2013-01-02T10:00:00Z,26.1914,-97.0507,0.0,10.53598121,355.2632555,13.39,'11111222,11111222,11111222' 
TABS,ioos:station:wmo:42044:1,2013-01-02T10:30:00Z,26.1914,-97.0507,0.0,10.44023467,359.6156291,12.85,'11111222,11144222,11111222' 
TABS,ioos:station:wmo:42044:1,2013-01-02T11:00:00Z,26.1914,-97.0507,0.0,10.09095139,2.669379186,13.01,'11111222,11111222,11111222' 
TABS,ioos:station:wmo:42044:1,2013-01-02T11:30:00Z,26.1914,-97.0507,0.0,9.899217141,355.5966554,13.25,'11111222,11111222,11111222' 
TABS,ioos:station:wmo:42044:1,2013-01-02T12:00:00Z,26.1914,-97.0507,0.0,10.29806292,348.7444404,13.58,'11111222,11111222,11111222' 
TABS,ioos:station:wmo:42044:1,2013-01-02T12:30:00Z,26.1914,-97.0507,0.0,10.91219959,345.4032481,13.83,'11111222,11111222,11111222' 
TABS,ioos:station:wmo:42044:1,2013-01-02T13:00:00Z,26.1914,-97.0507,0.0,11.18788631,357.8483709,14.42,'11111222,11111222,11111222' 
TABS,ioos:station:wmo:42044:1,2013-01-02T13:30:00Z,26.1914,-97.0507,0.0,10.62273505,357.193954,13.65,'11111222,11111222,11111222' 
TABS,ioos:station:wmo:42044:1,2013-01-02T14:00:00Z,26.1914,-97.0507,0.0,10.43093955,0.768812426,13.34,'11111222,11111222,11111222' 
TABS,ioos:station:wmo:42044:1,2013-01-02T14:30:00Z,26.1914,-97.0507,0.0,9.607085927,5.674763543,12.3,'11111222,11111222,11111222' 
TABS,ioos:station:wmo:42044:1,2013-01-02T15:00:00Z,26.1914,-97.0507,0.0,8.833215722,4.154717163,11.59,'11111222,11111222,11111222' 
TABS,ioos:station:wmo:42044:1,2013-01-02T15:30:00Z,26.1914,-97.0507,0.0,8.399738091,6.837128925,10.84,'11111222,11111222,11111222' 
TABS,ioos:station:wmo:42044:1,2013-01-02T16:00:00Z,26.1914,-97.0507,0.0,9.650207252,354.7677455,12.22,'11111222,11111222,11111222' 
TABS,ioos:station:wmo:42044:1,2013-01-02T16:30:00Z,26.1914,-97.0507,0.0,10.635248,354.7127009,13.6,'11111222,11111222,11111222' 
TABS,ioos:station:wmo:42044:1,2013-01-02T17:00:00Z,26.1914,-97.0507,0.0,10.57458273,354.7366965,12.94,'11111222,11111222,11111222' 
TABS,ioos:station:wmo:42044:1,2013-01-02T17:30:00Z,26.1914,-97.0507,0.0,10.45275562,358.68414,12.7,'11111222,11111222,11111222' 
TABS,ioos:station:wmo:42044:1,2013-01-02T18:00:00Z,26.1914,-97.0507,0.0,10.27070105,359.330348,12.97,'11111222,11144222,11111222' 
TABS,ioos:station:wmo:42044:1,2013-01-02T18:30:00Z,26.1914,-97.0507,0.0,10.56002367,2.496406978,12.92,'11111222,11111222,11111222' 
TABS,ioos:station:wmo:42044:1,2013-01-02T19:00:00Z,26.1914,-97.0507,0.0,9.951251178,3.744916879,12.93,'11111222,11111222,11111222' 
TABS,ioos:station:wmo:42044:1,2013-01-02T19:30:00Z,26.1914,-97.0507,0.0,9.321856038,2.889812265,12.19,'11111222,11111222,11111222' 
TABS,ioos:station:wmo:42044:1,2013-01-02T20:00:00Z,26.1914,-97.0507,0.0,10.32233016,345.8693427,12.7,'11111222,11111222,11111222' 
TABS,ioos:station:wmo:42044:1,2013-01-02T20:30:00Z,26.1914,-97.0507,0.0,10.17990668,342.1522371,13.07,'11111222,11111222,11111222' 
TABS,ioos:station:wmo:42044:1,2013-01-02T21:00:00Z,26.1914,-97.0507,0.0,9.974091437,346.7856147,12.89,'11111222,11111222,11111222' 
TABS,ioos:station:wmo:42044:1,2013-01-02T21:30:00Z,26.1914,-97.0507,0.0,10.34448645,351.10205,13.8,'11111222,11111222,11111222' 
TABS,ioos:station:wmo:42044:1,2013-01-02T22:00:00Z,26.1914,-97.0507,0.0,9.959643568,350.0551506,12.94,'11111222,11111222,11111222' 
TABS,ioos:station:wmo:42044:1,2013-01-02T22:30:00Z,26.1914,-97.0507,0.0,9.798658071,345.5806682,12.78,'11111222,11111222,11111222' 
TABS,ioos:station:wmo:42044:1,2013-01-02T23:00:00Z,26.1914,-97.0507,0.0,10.24727281,318.7981811,13.32,'11111222,11111222,11111222' 
TABS,ioos:station:wmo:42044:1,2013-01-02T23:30:00Z,26.1914,-97.0507,0.0,11.53752573,311.7324195,14.99,'11111222,11111222,11111222' 
TABS,ioos:station:wmo:42044:1,2013-01-03T00:00:00Z,26.1914,-97.0507,0.0,10.66662552,317.5455364,13.17,'11111222,11111222,11111222' 
TABS,ioos:station:wmo:42044:1,2013-01-03T00:30:00Z,26.1914,-97.0507,0.0,10.65293387,324.4746994,13.19,'11111222,11111222,11111222' 
TABS,ioos:station:wmo:42044:1,2013-01-03T01:00:00Z,26.1914,-97.0507,0.0,10.59415877,323.443657,13.46,'11111222,11111222,11111222' 
TABS,ioos:station:wmo:42044:1,2013-01-03T01:30:00Z,26.1914,-97.0507,0.0,10.61600678,323.1947433,13.18,'11111222,11111222,11111222' 
TABS,ioos:station:wmo:42044:1,2013-01-03T02:00:00Z,26.1914,-97.0507,0.0,10.28809992,319.7308223,13.09,'11111222,11111222,11111222' 
TABS,ioos:station:wmo:42044:1,2013-01-03T02:30:00Z,26.1914,-97.0507,0.0,9.521607007,2.829133475,12.34,'11111222,11111222,11111222' 
TABS,ioos:station:wmo:42044:1,2013-01-03T03:00:00Z,26.1914,-97.0507,0.0,9.003310502,10.23630798,11.39,'11111222,11111222,11111222' 
TABS,ioos:station:wmo:42044:1,2013-01-03T03:30:00Z,26.1914,-97.0507,0.0,8.791632385,15.30059933,11.02,'11111222,11111222,11111222' 
TABS,ioos:station:wmo:42044:1,2013-01-03T04:00:00Z,26.1914,-97.0507,0.0,8.827349546,339.1627102,13.14,'11111222,11111222,11111222' 
TABS,ioos:station:wmo:42044:1,2013-01-03T04:30:00Z,26.1914,-97.0507,0.0,10.85403612,323.277783,14.25,'11111222,11111222,11111222' 
TABS,ioos:station:wmo:42044:1,2013-01-03T05:00:00Z,26.1914,-97.0507,0.0,11.20252204,326.7637306,13.93,'11111222,11111222,11111222' 
TABS,ioos:station:wmo:42044:1,2013-01-03T05:30:00Z,26.1914,-97.0507,0.0,10.52225261,319.239124,13.33,'11111222,11111222,11111222' 
TABS,ioos:station:wmo:42044:1,2013-01-03T06:00:00Z,26.1914,-97.0507,0.0,8.691294495,359.010895,11.54,'11111222,11144222,11111222' 
TABS,ioos:station:wmo:42044:1,2013-01-03T06:30:00Z,26.1914,-97.0507,0.0,9.280538777,352.4459612,11.88,'11111222,11111222,11111222' 
TABS,ioos:station:wmo:42044:1,2013-01-03T07:00:00Z,26.1914,-97.0507,0.0,10.22792745,328.065737,14.07,'11111222,11111222,11111222' 
TABS,ioos:station:wmo:42044:1,2013-01-03T07:30:00Z,26.1914,-97.0507,0.0,9.154944019,349.1071966,11.86,'11111222,11111222,11111222' 
TABS,ioos:station:wmo:42044:1,2013-01-03T08:00:00Z,26.1914,-97.0507,0.0,8.513383581,358.3843593,11.26,'11111222,11111222,11111222' 
TABS,ioos:station:wmo:42044:1,2013-01-03T08:30:00Z,26.1914,-97.0507,0.0,8.510869521,357.1037727,10.92,'11111222,11111222,11111222' 
TABS,ioos:station:wmo:42044:1,2013-01-03T09:00:00Z,26.1914,-97.0507,0.0,8.175145259,357.9668931,10.29,'11111222,11111222,11111222' 
TABS,ioos:station:wmo:42044:1,2013-01-03T09:30:00Z,26.1914,-97.0507,0.0,8.82580308,357.9219473,11.2,'11111222,11111222,11111222' 
TABS,ioos:station:wmo:42044:1,2013-01-03T10:00:00Z,26.1914,-97.0507,0.0,9.362830769,356.9998744,12.33,'11111222,11111222,11111222' 
TABS,ioos:station:wmo:42044:1,2013-01-03T10:30:00Z,26.1914,-97.0507,0.0,9.609708632,352.1648246,12.47,'11111222,11111222,11111222' 
TABS,ioos:station:wmo:42044:1,2013-01-03T11:00:00Z,26.1914,-97.0507,0.0,9.190973833,352.8747899,11.7,'11111222,11111222,11111222' 
TABS,ioos:station:wmo:42044:1,2013-01-03T11:30:00Z,26.1914,-97.0507,0.0,9.306212978,357.9060425,11.46,'11111222,11111222,11111222' 
TABS,ioos:station:wmo:42044:1,2013-01-03T12:00:00Z,26.1914,-97.0507,0.0,9.237819007,2.357325466,11.88,'11111222,11111222,11111222' 
TABS,ioos:station:wmo:42044:1,2013-01-03T12:30:00Z,26.1914,-97.0507,0.0,9.085290309,5.051467072,11.43,'11111222,11111222,11111222' 
TABS,ioos:station:wmo:42044:1,2013-01-03T13:00:00Z,26.1914,-97.0507,0.0,8.751577001,2.947191537,10.93,'11111222,11111222,11111222' 
TABS,ioos:station:wmo:42044:1,2013-01-03T13:30:00Z,26.1914,-97.0507,0.0,9.081855537,4.80009433,11.54,'11111222,11111222,11111222' 
TABS,ioos:station:wmo:42044:1,2013-01-03T14:00:00Z,26.1914,-97.0507,0.0,9.173576184,6.19512404,11.64,'11111222,11111222,11111222' 
TABS,ioos:station:wmo:42044:1,2013-01-03T14:30:00Z,26.1914,-97.0507,0.0,8.443535989,9.406311169,11.06,'11111222,11111222,11111222' 
TABS,ioos:station:wmo:42044:1,2013-01-03T15:00:00Z,26.1914,-97.0507,0.0,9.102713881,13.53221453,11.19,'11111222,11111222,11111222' 
TABS,ioos:station:wmo:42044:1,2013-01-03T15:30:00Z,26.1914,-97.0507,0.0,9.137050947,11.29739773,11.36,'11111222,11111222,11111222' 
TABS,ioos:station:wmo:42044:1,2013-01-03T16:00:00Z,26.1914,-97.0507,0.0,8.92569325,15.99805271,11.16,'11111222,11111222,11111222' 
TABS,ioos:station:wmo:42044:1,2013-01-03T16:30:00Z,26.1914,-97.0507,0.0,9.253248078,18.98296221,11.68,'11111222,11111222,11111222' 
TABS,ioos:station:wmo:42044:1,2013-01-03T17:00:00Z,26.1914,-97.0507,0.0,8.364615951,22.64067779,10.76,'11111222,11111222,11111222' 
TABS,ioos:station:wmo:42044:1,2013-01-03T17:30:00Z,26.1914,-97.0507,0.0,8.391739986,17.11753782,10.86,'11111222,11111222,11111222' 
TABS,ioos:station:wmo:42044:1,2013-01-03T18:00:00Z,26.1914,-97.0507,0.0,8.485923639,17.34571797,11.54,'11111222,11111222,11111222' 
TABS,ioos:station:wmo:42044:1,2013-01-03T18:30:00Z,26.1914,-97.0507,0.0,8.528364439,10.33465682,11.12,'11111222,11111222,11111222' 
TABS,ioos:station:wmo:42044:1,2013-01-03T19:00:00Z,26.1914,-97.0507,0.0,8.534928236,14.31278859,11.75,'11111222,11111222,11111222' 
TABS,ioos:station:wmo:42044:1,2013-01-03T19:30:00Z,26.1914,-97.0507,0.0,8.861106026,9.483349601,12.57,'11111222,11111222,11111222' 
TABS,ioos:station:wmo:42044:1,2013-01-03T20:00:00Z,26.1914,-97.0507,0.0,9.593294533,8.814043119,12.16,'11111222,11111222,11111222' 
TABS,ioos:station:wmo:42044:1,2013-01-03T20:30:00Z,26.1914,-97.0507,0.0,9.842159316,5.304886742,12.86,'11111222,11111222,11111222' 
TABS,ioos:station:wmo:42044:1,2013-01-03T21:00:00Z,26.1914,-97.0507,0.0,10.21756331,4.209248817,13.08,'11111222,11111222,11111222' 
TABS,ioos:station:wmo:42044:1,2013-01-03T21:30:00Z,26.1914,-97.0507,0.0,10.88908169,7.333634489,13.08,'11111222,11111222,11111222' 
TABS,ioos:station:wmo:42044:1,2013-01-03T22:00:00Z,26.1914,-97.0507,0.0,10.91408723,5.151430631,13.11,'11111222,11111222,11111222' 
TABS,ioos:station:wmo:42044:1,2013-01-03T22:30:00Z,26.1914,-97.0507,0.0,10.67288152,9.709204245,13.62,'11111222,11111222,11111222' 
TABS,ioos:station:wmo:42044:1,2013-01-03T23:00:00Z,26.1914,-97.0507,0.0,10.18059429,11.67392805,12.45,'11111222,11111222,11111222' 
TABS,ioos:station:wmo:42044:1,2013-01-03T23:30:00Z,26.1914,-97.0507,0.0,10.05700751,11.64488468,13.1,'11111222,11111222,11111222' 
TABS,ioos:station:wmo:42044:1,2013-01-04T00:00:00Z,26.1914,-97.0507,0.0,10.32969506,14.29160245,13.43,'11111222,11111222,11111222' 
TABS,ioos:station:wmo:42044:1,2013-01-04T00:30:00Z,26.1914,-97.0507,0.0,9.793814374,15.88086134,12.73,'11111222,11111222,11111222' 
TABS,ioos:station:wmo:42044:1,2013-01-04T01:00:00Z,26.1914,-97.0507,0.0,9.78722126,16.37938052,13.4,'11111222,11111222,11111222' 
TABS,ioos:station:wmo:42044:1,2013-01-04T01:30:00Z,26.1914,-97.0507,0.0,9.378155469,26.81068115,12.21,'11111222,11111222,11111222' 
TABS,ioos:station:wmo:42044:1,2013-01-04T02:00:00Z,26.1914,-97.0507,0.0,9.440688534,26.48335424,12.95,'11111222,11111222,11111222' 
TABS,ioos:station:wmo:42044:1,2013-01-04T02:30:00Z,26.1914,-97.0507,0.0,9.700396899,27.04025022,12.74,'11111222,11111222,11111222' 
TABS,ioos:station:wmo:42044:1,2013-01-04T03:00:00Z,26.1914,-97.0507,0.0,9.688926669,27.80784084,12.68,'11111222,11111222,11111222' 
TABS,ioos:station:wmo:42044:1,2013-01-04T03:30:00Z,26.1914,-97.0507,0.0,9.145414151,32.76881751,12.13,'11111222,11111222,11111222' 
TABS,ioos:station:wmo:42044:1,2013-01-04T04:00:00Z,26.1914,-97.0507,0.0,9.482220204,41.87911253,12.63,'11111222,11111222,11111222' 
TABS,ioos:station:wmo:42044:1,2013-01-04T04:30:00Z,26.1914,-97.0507,0.0,9.750128204,37.16342222,12.88,'11111222,11111222,11111222' 
TABS,ioos:station:wmo:42044:1,2013-01-04T05:00:00Z,26.1914,-97.0507,0.0,9.299344063,50.05999338,11.9,'11111222,11111222,11111222' 
TABS,ioos:station:wmo:42044:1,2013-01-04T05:30:00Z,26.1914,-97.0507,0.0,8.22236584,48.20410561,10.66,'11111222,11111222,11111222' 
TABS,ioos:station:wmo:42044:1,2013-01-04T06:00:00Z,26.1914,-97.0507,0.0,7.984992173,57.84215201,10.25,'11111222,11111222,11111222' 
TABS,ioos:station:wmo:42044:1,2013-01-04T06:30:00Z,26.1914,-97.0507,0.0,9.145764047,63.0143361,11.78,'11111222,11111222,11111222' 
TABS,ioos:station:wmo:42044:1,2013-01-04T07:00:00Z,26.1914,-97.0507,0.0,7.589216033,63.46835292,10.49,'11111222,11111222,11111222' 
TABS,ioos:station:wmo:42044:1,2013-01-04T07:30:00Z,26.1914,-97.0507,0.0,6.784983419,55.32586971,10.24,'11111222,11111222,11111222' 
TABS,ioos:station:wmo:42044:1,2013-01-04T08:00:00Z,26.1914,-97.0507,0.0,7.351788898,54.96933295,10.84,'11111222,11111222,11111222' 
TABS,ioos:station:wmo:42044:1,2013-01-04T08:30:00Z,26.1914,-97.0507,0.0,7.04809194,53.42242164,9.59,'11111222,11111222,11111222' 
TABS,ioos:station:wmo:42044:1,2013-01-04T09:00:00Z,26.1914,-97.0507,0.0,7.052836309,54.75474021,9.82,'11111222,11111222,11111222' 
TABS,ioos:station:wmo:42044:1,2013-01-04T09:30:00Z,26.1914,-97.0507,0.0,6.365862078,43.59940295,8.7,'11111222,11111222,11111222' 
TABS,ioos:station:wmo:42044:1,2013-01-04T10:00:00Z,26.1914,-97.0507,0.0,6.486724906,35.20881065,8.53,'11111222,11111222,11111222' 
TABS,ioos:station:wmo:42044:1,2013-01-04T10:30:00Z,26.1914,-97.0507,0.0,11.55100429,320.867525,15.05,'11111222,11111222,11111222' 
TABS,ioos:station:wmo:42044:1,2013-01-04T11:00:00Z,26.1914,-97.0507,0.0,12.27800065,323.111312,15.0,'11111222,11111222,11111222' 
TABS,ioos:station:wmo:42044:1,2013-01-04T11:30:00Z,26.1914,-97.0507,0.0,11.87673777,328.5314204,15.34,'11111222,11111222,11111222' 
TABS,ioos:station:wmo:42044:1,2013-01-04T12:00:00Z,26.1914,-97.0507,0.0,11.48225152,322.7507406,14.2,'11111222,11111222,11111222' 
TABS,ioos:station:wmo:42044:1,2013-01-04T12:30:00Z,26.1914,-97.0507,0.0,10.76406057,320.2011268,13.43,'11111222,11111222,11111222' 
TABS,ioos:station:wmo:42044:1,2013-01-04T13:00:00Z,26.1914,-97.0507,0.0,11.55328957,311.5963761,15.5,'11111222,11111222,11111222' 
TABS,ioos:station:wmo:42044:1,2013-01-04T13:30:00Z,26.1914,-97.0507,0.0,11.36009243,321.2534273,14.16,'11111222,11111222,11111222' 
TABS,ioos:station:wmo:42044:1,2013-01-04T14:00:00Z,26.1914,-97.0507,0.0,10.9588503,329.269232,13.89,'11111222,11111222,11111222' 
TABS,ioos:station:wmo:42044:1,2013-01-04T14:30:00Z,26.1914,-97.0507,0.0,11.82215293,313.1147223,15.33,'11111222,11111222,11111222' 
TABS,ioos:station:wmo:42044:1,2013-01-04T15:00:00Z,26.1914,-97.0507,0.0,12.17641162,314.8668041,15.17,'11111222,11111222,11111222' 
TABS,ioos:station:wmo:42044:1,2013-01-04T15:30:00Z,26.1914,-97.0507,0.0,11.22626385,317.5991735,13.81,'11111222,11111222,11111222' 
TABS,ioos:station:wmo:42044:1,2013-01-04T16:00:00Z,26.1914,-97.0507,0.0,11.04065215,307.4925657,14.02,'11111222,11111222,11111222' 
TABS,ioos:station:wmo:42044:1,2013-01-04T16:30:00Z,26.1914,-97.0507,0.0,11.50944829,304.8084168,14.53,'11111222,11111222,11111222' 
TABS,ioos:station:wmo:42044:1,2013-01-04T17:00:00Z,26.1914,-97.0507,0.0,10.28258722,308.9207837,12.96,'11111222,11111222,11111222' 
TABS,ioos:station:wmo:42044:1,2013-01-04T17:30:00Z,26.1914,-97.0507,0.0,8.3078818,19.11078303,10.89,'11111222,11111222,11111222' 
TABS,ioos:station:wmo:42044:1,2013-01-04T18:00:00Z,26.1914,-97.0507,0.0,7.642702402,11.08915915,9.74,'11111222,11111222,11111222' 